DELTA 1 DEB, 26832

Orbit data source: Space-Track

DELTA 1 DEB, 26832 is space debris in SSO originally from a launch on Thu, 12 Jun 1975 UTC launched from the Air Force Western Test Range (AFWTR). Debris objects in space refer to the collection of defunct objects orbiting the Earth. Examples of debris include non-operational satellites, rocket bodies, and fragments generated from explosions, collisions, or faulty payload assembly.

Loading next visibility...
Identifier
26832, 1975-052KL
Orbit
SSO
Country
Flag of USUS
Related business
Manufacturer
Unknown
Mission
Spacecraft
Bus & Motor
Unknown
Mass
Unknown
Launch date (UTC)
1975-06-12 (51 years ago)
Launch vehicle
Unknown
Launch site
Air Force Western Test Range (AFWTR)
Object type
Payload
Rocket body
Debris
Shape & HBR
Unknown shape, 0.1 m
Radar Cross Section
Medium (>0.1 m² and <1 m²)

Expand to show TLE details & history
Last TLE update: 5 days ago

TLE from 5 days ago
0 DELTA 1 DEB
1 26832U 75052KL  26164.75629927  .00000138  00000-0  86837-3 0  9993
2 26832  99.6225 137.0680 0619236 214.5639 278.7653 12.21504188579762
Epoch: 2026-06-13T18:09Z
TLE epoch observation values (Epoch: 2026-06-13T18:09:04.256Z)
Latitude
52.75525°
Longitude
155.555°
Altitude
1,549.458 km
Speed
7.117 km/s
True Right ascension
21h 59m 33s
True Declination
52° 36' 22"
Sunlit
Object was in daylight at epoch
Visualization orbit readout
Latitude
Unknown
Longitude
Unknown
Altitude
Unknown
Speed
Unknown
Apparent Right ascension
Unknown
Apparent Declination
Unknown
Sunlit
N/A
Visualization observer readout
Local Sidereal Time
18:43:34
Azimuth
Unknown
Elevation
Unknown
Doppler factor
Unknown
Orbital elements
Apogee altitude
2,076.465 km
Perigee altitude
1,090.444 km
Semi-major axis
7,961.591 km
Eccentricity
0.06192
Inclination
99.6225°
RAAN
137.068°
Arg. of periapsis
214.5639°
True anomaly
271.68666°
Mean anomaly
278.7653°
Eccentric anomaly
275.23212°
Mean motion
3.05523 °/min
Orbital period
117.83 mins
BSTAR
0.00086837
Loading maneuver chart data...
Computing Atmospheric mass density...
Loading historical data...
Loading historical data...
Loading historical data...
Loading historical data...
Loading historical data...
Loading historical data...
Loading historical data...

Documentation

Showing up to 5 results
|